This demonstration page uses our WeatherBlox Daily Observations layout. Learn more.

Left ArrowRight Arrow

Hourly Observations for May 12, 2020

Temp ( °F °C ) Dew Point ( °F °C ) Humidity (%) Winds ( mph kmh ) Pressure ( in mb ) Visibility ( mi km ) Precip ( " mm )
12:03 am 00:03 Cloudy 55 12.8 53 11.7 93 93 Calm 29.88 1012 10 16 0.00 0.00
12:21 am 00:21 Cloudy with Light Rain 55 12.8 53 11.7 93 93 N 3 6 29.87 1012 10 16 0.00 0.00
12:53 am 00:53 Cloudy 55 12.8 53 11.7 93 93 Calm 29.86 1011 10 16 0.00 0.00
1:24 am 01:24 Cloudy 56 13.3 54 12.2 93 93 S 7 11 29.87 1012 10 16 0.00 0.00
1:44 am 01:44 Cloudy 57 13.9 54 12.2 90 90 S 15 24 29.86 1011 10 16 0.00 0.00
1:53 am 01:53 Cloudy 57 13.9 53 11.7 87 87 S 14 22 29.85 1011 10 16 0.00 0.00
2:44 am 02:44 Mostly Cloudy 57 13.9 53 11.7 87 87 S 9 15 29.86 1011 10 16 0.00 0.00
2:53 am 02:53 Mostly Cloudy 57 13.9 53 11.7 87 87 S 14 22 29.85 1011 10 16 0.00 0.00
3:53 am 03:53 Cloudy 57 13.9 53 11.7 87 87 S 13 20 29.85 1011 10 16 0.00 0.00
4:41 am 04:41 Cloudy 56 13.3 52 11.1 87 87 SSW 12 19 29.85 1011 10 16 0.00 0.00
4:53 am 04:53 Cloudy 56 13.3 52 11.1 87 87 SSW 10 17 29.84 1010 10 16 0.00 0.00
5:09 am 05:09 Cloudy 56 13.3 52 11.1 87 87 SSW 9 15 29.84 1011 10 16 0.00 0.00
5:19 am 05:19 Cloudy 56 13.3 52 11.1 87 87 SSW 8 13 29.84 1011 10 16 0.00 0.00
5:53 am 05:53 Cloudy with Light Rain 56 13.3 53 11.7 90 90 SSW 7 11 29.83 1010 10 16 0.00 0.00
6:00 am 06:00 Cloudy with Light Rain 56 13.3 53 11.7 90 90 SSW 8 13 29.83 1010 10 16 0.01 0.25
6:11 am 06:11 Cloudy with Light Rain 56 13.3 53 11.7 90 90 SSW 8 13 29.83 1010 10 16 0.02 0.51
6:53 am 06:53 Cloudy 56 13.3 52 11.1 87 87 S 17 28 29.83 1010 10 16 0.02 0.51
7:53 am 07:53 Cloudy 57 13.9 52 11.1 83 83 S 17 28 29.84 1011 10 16 0.00 0.00
8:15 am 08:15 Cloudy 57 13.9 53 11.7 87 87 S 13 20 29.85 1011 10 16 0.00 0.00
8:48 am 08:48 Cloudy 57 14 52 11 82 82 S 14 22 29.85 1011 10 16 0.00 0.00
8:53 am 08:53 Cloudy 58 14.4 53 11.7 84 84 S 12 19 29.85 1011 10 16 0.00 0.00
9:53 am 09:53 Cloudy 59 15 52 11.1 78 78 S 16 26 29.86 1011 10 16 0.00 0.00
10:53 am 10:53 Cloudy 60 15.6 52 11.1 75 75 SSE 8 13 29.86 1011 10 16 0.00 0.00
11:35 am 11:35 Cloudy with Nearby Thunderstorms 62 16.7 52 11.1 70 70 S 20 31 29.85 1011 10 16 0.00 0.00
11:50 am 11:50 Cloudy 63 17 52 11 68 68 SSE 17 28 29.85 1011 10 16 0.00 0.00
11:53 am 11:53 Cloudy 62 16.7 51 10.6 67 67 S 15 24 29.85 1011 10 16 0.00 0.00
11:55 am 11:55 Cloudy with Nearby Thunderstorms 62 16.7 51 10.6 67 67 SSE 18 30 29.85 1011 10 16 0.00 0.00
12:09 pm 12:09 Cloudy with Light Rain 60 15.6 52 11.1 75 75 S 15 24 29.87 1011 10 16 0.00 0.00
12:19 pm 12:19 Cloudy with Thunderstorms 61 16.1 53 11.7 75 75 S 12 19 29.87 1011 10 16 0.00 0.00
12:39 pm 12:39 Cloudy with Nearby Thunderstorms 59 15 54 12.2 83 83 SW 8 13 29.88 1012 10 16 0.01 0.25
12:46 pm 12:46 Cloudy with Rain 58 14.4 54 12.2 87 87 WNW 6 9 29.88 1012 10 16 0.03 0.76
12:53 pm 12:53 Cloudy with Rain 57 13.9 55 12.8 93 93 W 6 9 29.88 1012 4 6 0.05 1.27
1:01 pm 13:01 Cloudy with Nearby Thunderstorms 57 13.9 54 12.2 90 90 SSW 6 9 29.88 1012 6 10 0.03 0.76
1:35 pm 13:35 Cloudy with Thunderstorms 57 13.9 51 10.6 81 81 ESE 14 22 29.86 1011 10 16 0.20 5.08
1:53 pm 13:53 Cloudy with Thunderstorms 58 14.4 54 12.2 87 87 SE 12 19 29.87 1011 10 16 0.20 5.08
2:17 pm 14:17 Mostly Cloudy with Nearby Thunderstorms 59 15 54 12.2 83 83 SE 10 17 29.87 1011 10 16 0.00 0.00
2:40 pm 14:40 Cloudy with Rain 58 14.4 54 12.2 87 87 SSE 7 11 29.87 1011 10 16 0.01 0.25
2:53 pm 14:53 Cloudy 59 15 55 12.8 87 87 VRB 6 9 29.86 1011 10 16 0.02 0.51
3:05 pm 15:05 Cloudy with Nearby Thunderstorms 58 14.4 54 12.2 87 87 ESE 8 13 29.87 1011 8 13 0.04 1.02
3:20 pm 15:20 Mostly Cloudy 60 15.6 56 13.3 86 86 ESE 6 9 29.87 1011 10 16 0.06 1.52
3:38 pm 15:38 Mostly Cloudy with Strong Thunderstorms 59 15 53 11.7 81 81 ESE 21 33 29.85 1011 5 8 0.20 5.08
3:53 pm 15:53 Cloudy with Thunderstorms 59 15 52 11.1 78 78 ESE 5 7 29.84 1010 10 16 0.24 6.10
4:11 pm 16:11 Cloudy with Light Rain 58 14.4 54 12.2 87 87 W 7 11 29.86 1011 10 16 0.04 1.02
4:53 pm 16:53 Cloudy with Thunderstorms 58 14.4 55 12.8 90 90 W 10 17 29.85 1011 9 14 0.09 2.29
5:13 pm 17:13 Cloudy with Heavy Rain 56 13.3 51 10.6 84 84 S 13 20 29.85 1011 5 8 0.22 5.59
5:18 pm 17:18 Cloudy with Nearby Thunderstorms 56 13.3 51 10.6 84 84 SE 6 9 29.84 1011 6 10 0.26 6.60
5:38 pm 17:38 Cloudy with Thunderstorms 59 15 53 11.7 81 81 VRB 6 9 29.84 1010 10 16 0.27 6.86
5:53 pm 17:53 Cloudy with Light Rain 57 13.9 52 11.1 83 83 ESE 12 19 29.83 1010 10 16 0.27 6.86
6:09 pm 18:09 Cloudy with Thunderstorms 57 13.9 52 11.1 83 83 SSE 15 24 29.84 1010 10 16 0.00 0.00
6:24 pm 18:24 Cloudy with Light Rain 57 13.9 52 11.1 83 83 SE 8 13 29.84 1010 10 16 0.00 0.00
6:32 pm 18:32 Cloudy with Nearby Thunderstorms 57 13.9 53 11.7 87 87 NW 5 7 29.85 1011 10 16 0.00 0.00
6:53 pm 18:53 Cloudy with Light Rain 57 13.9 53 11.7 87 87 E 7 11 29.85 1011 10 16 0.02 0.51
7:53 pm 19:53 Cloudy 55 12.8 53 11.7 93 93 NE 5 7 29.86 1011 10 16 0.02 0.51
8:53 pm 20:53 Cloudy 55 12.8 52 11.1 90 90 N 7 11 29.88 1012 10 16 0.00 0.00
9:53 pm 21:53 Cloudy 55 12.8 52 11.1 90 90 VRB 3 6 29.91 1013 10 16 0.00 0.00
10:53 pm 22:53 Cloudy 55 12.8 52 11.1 90 90 N 5 7 29.92 1013 10 16 0.00 0.00
11:53 pm 23:53 Cloudy 54 12.2 52 11.1 93 93 ENE 3 6 29.92 1013 10 16 0.00 0.00

Powered by AerisWeather